When you browse on this site, cookies collect data to enhance your experience and personalize the content and advertising you see.
Visit our Privacy Policy to learn more. By continuing to use the site, you agree to this use of cookies and data.
  • In Spain
  • List of Countries
  • For 7 days
  • Water Temperature
  • Weather Map
  • Weather Widgets
  • user-avatar
    Login

    Hourly Weather Adelaide

    Today, 24 August, Saturday

    Time Temperature Precipitation Wind Pressure Humidity
    00:00 +12°C° 0 mm 5 mps 758 mmHg 51%
    01:00 +12°C° 0 mm 5 mps 758 mmHg 51%
    02:00 +12°C° 0 mm 5 mps 757 mmHg 50%
    03:00 +11°C° 0 mm 6 mps 756 mmHg 50%
    04:00 +11°C° 0 mm 6 mps 756 mmHg 50%
    05:00 +11°C° 0 mm 6 mps 756 mmHg 50%
    06:00 +11°C° 0 mm 6 mps 757 mmHg 50%
    07:00 +13°C° 0 mm 6 mps 757 mmHg 52%
    08:00 +13°C° 0 mm 6 mps 757 mmHg 54%
    09:00 +14°C° 0 mm 7 mps 757 mmHg 56%
    10:00 +14°C° 0 mm 6 mps 757 mmHg 66%
    11:00 +14°C° 0 mm 5 mps 758 mmHg 75%
    12:00 +14°C° 0 mm 5 mps 758 mmHg 84%
    13:00 +14°C° 0 mm 5 mps 758 mmHg 78%
    14:00 +14°C° 0 mm 5 mps 758 mmHg 72%
    15:00 +14°C° 0 mm 6 mps 758 mmHg 66%
    16:00 +12°C° 0 mm 5 mps 759 mmHg 70%
    17:00 +10°C° 0 mm 5 mps 760 mmHg 74%
    18:00 +10°C° 0 mm 4 mps 760 mmHg 78%
    19:00 +8°C° 0 mm 4 mps 761 mmHg 80%
    20:00 +9°C° 0 mm 3 mps 761 mmHg 82%
    21:00 +8°C° 0 mm 3 mps 762 mmHg 84%
    22:00 +8°C° 0 mm 3 mps 762 mmHg 84%
    23:00 +8°C° 0 mm 3 mps 762 mmHg 84%

    Tomorrow, 25 August, Sunday

    Time Temperature Precipitation Wind Pressure Humidity
    00:00 +7°C° 0 mm 3 mps 763 mmHg 84%
    01:00 +7°C° 0 mm 3 mps 763 mmHg 83%
    02:00 +7°C° 0 mm 3 mps 763 mmHg 81%
    03:00 +7°C° 0 mm 3 mps 763 mmHg 80%
    04:00 +7°C° 0 mm 3 mps 763 mmHg 78%
    05:00 +7°C° 0 mm 3 mps 764 mmHg 76%
    06:00 +7°C° 0 mm 2 mps 764 mmHg 74%
    07:00 +8°C° 0 mm 2 mps 764 mmHg 69%
    08:00 +9°C° 0 mm 2 mps 765 mmHg 63%
    09:00 +12°C° 0 mm 2 mps 765 mmHg 57%
    10:00 +12°C° 0 mm 2 mps 765 mmHg 60%
    11:00 +12°C° 0 mm 2 mps 765 mmHg 62%
    12:00 +12°C° 0 mm 2 mps 765 mmHg 65%
    13:00 +12°C° 0 mm 2 mps 764 mmHg 63%
    14:00 +11°C° 0 mm 3 mps 764 mmHg 61%
    15:00 +11°C° 0 mm 3 mps 764 mmHg 59%
    16:00 +11°C° 0 mm 3 mps 764 mmHg 64%
    17:00 +10°C° 0 mm 3 mps 765 mmHg 69%
    18:00 +9°C° 0 mm 3 mps 765 mmHg 74%
    19:00 +9°C° 0 mm 2 mps 766 mmHg 77%
    20:00 +8°C° 0 mm 2 mps 766 mmHg 79%
    21:00 +8°C° 0 mm 2 mps 766 mmHg 81%
    22:00 +8°C° 0 mm 1 mps 766 mmHg 82%
    23:00 +8°C° 0 mm 1 mps 766 mmHg 83%

    Day after tomorrow, 26 August, Monday

    Time Temperature Precipitation Wind Pressure Humidity
    00:00 +8°C° 0 mm 1 mps 766 mmHg 84%
    01:00 +7°C° 0 mm 1 mps 766 mmHg 84%
    02:00 +7°C° 0 mm 1 mps 766 mmHg 85%
    03:00 +7°C° 0 mm 1 mps 765 mmHg 85%
    04:00 +7°C° 0 mm 1 mps 766 mmHg 86%
    05:00 +7°C° 0 mm 1 mps 766 mmHg 86%
    06:00 +7°C° 0 mm 1 mps 767 mmHg 86%
    07:00 +9°C° 0 mm 1 mps 767 mmHg 81%
    08:00 +10°C° 0 mm 1 mps 767 mmHg 76%
    09:00 +12°C° 0 mm 1 mps 767 mmHg 70%
    10:00 +12°C° 0 mm 2 mps 767 mmHg 68%
    11:00 +12°C° 0 mm 2 mps 766 mmHg 67%
    12:00 +13°C° 0 mm 2 mps 766 mmHg 65%
    13:00 +13°C° 0 mm 2 mps 766 mmHg 64%
    14:00 +13°C° 0 mm 2 mps 766 mmHg 64%
    15:00 +13°C° 0 mm 2 mps 765 mmHg 63%
    16:00 +12°C° 0 mm 2 mps 766 mmHg 68%
    17:00 +10°C° 0 mm 2 mps 766 mmHg 74%
    18:00 +9°C° 0 mm 2 mps 766 mmHg 79%
    19:00 +9°C° 0 mm 2 mps 767 mmHg 80%
    20:00 +10°C° 0 mm 1 mps 767 mmHg 82%
    21:00 +9°C° 0 mm 1 mps 767 mmHg 83%
    22:00 +9°C° 0 mm 1 mps 767 mmHg 84%
    23:00 +8°C° 0 mm 1 mps 767 mmHg 85%

    27 August, Tuesday

    Time Temperature Precipitation Wind Pressure Humidity
    00:00 +8°C° 0 mm 1 mps 767 mmHg 85%
    01:00 +8°C° 0 mm 1 mps 767 mmHg 86%
    02:00 +7°C° 0 mm 1 mps 766 mmHg 86%
    03:00 +7°C° 0 mm 1 mps 766 mmHg 86%
    04:00 +7°C° 0 mm 1 mps 766 mmHg 87%
    05:00 +7°C° 0 mm 1 mps 766 mmHg 88%
    06:00 +6°C° 0 mm 2 mps 767 mmHg 88%
    07:00 +7°C° 0 mm 2 mps 767 mmHg 84%
    08:00 +9°C° 0 mm 2 mps 767 mmHg 79%
    09:00 +12°C° 0 mm 2 mps 767 mmHg 75%
    10:00 +12°C° 0 mm 2 mps 767 mmHg 73%
    11:00 +13°C° 0 mm 2 mps 767 mmHg 71%
    12:00 +13°C° 0 mm 2 mps 767 mmHg 68%
    13:00 +13°C° 0 mm 2 mps 766 mmHg 66%
    14:00 +13°C° 0 mm 2 mps 766 mmHg 64%
    15:00 +14°C° 0 mm 2 mps 765 mmHg 61%
    16:00 +12°C° 0 mm 1 mps 766 mmHg 67%
    17:00 +11°C° 0 mm 1 mps 766 mmHg 72%
    18:00 +10°C° 0 mm 1 mps 766 mmHg 77%
    19:00 +10°C° 0 mm 1 mps 766 mmHg 79%
    20:00 +9°C° 0 mm 1 mps 766 mmHg 81%
    21:00 +9°C° 0 mm 1 mps 767 mmHg 84%
    22:00 +9°C° 0 mm 1 mps 766 mmHg 86%
    23:00 +8°C° 0 mm 2 mps 766 mmHg 88%

    28 August, Wednesday

    Time Temperature Precipitation Wind Pressure Humidity
    00:00 +8°C° 0 mm 2 mps 766 mmHg 90%
    01:00 +7°C° 0 mm 2 mps 766 mmHg 91%
    02:00 +7°C° 0 mm 2 mps 765 mmHg 92%
    03:00 +7°C° 0 mm 2 mps 765 mmHg 93%
    04:00 +7°C° 0 mm 2 mps 765 mmHg 93%
    05:00 +8°C° 0 mm 2 mps 766 mmHg 93%
    06:00 +8°C° 0 mm 2 mps 766 mmHg 93%
    07:00 +9°C° 0 mm 3 mps 766 mmHg 89%
    08:00 +10°C° 0 mm 3 mps 766 mmHg 84%
    09:00 +11°C° 0 mm 4 mps 766 mmHg 80%
    10:00 +12°C° 0.1 mm 4 mps 766 mmHg 75%
    11:00 +13°C° 0.1 mm 4 mps 765 mmHg 70%
    12:00 +13°C° 0.1 mm 5 mps 765 mmHg 65%
    13:00 +13°C° 0.1 mm 5 mps 765 mmHg 67%
    14:00 +13°C° 0.1 mm 5 mps 765 mmHg 69%
    15:00 +13°C° 0.1 mm 6 mps 764 mmHg 71%
    16:00 +12°C° 0.3 mm 5 mps 765 mmHg 76%
    17:00 +11°C° 0.3 mm 4 mps 765 mmHg 82%
    18:00 +11°C° 0.3 mm 4 mps 766 mmHg 87%
    19:00 +10°C° 0 mm 4 mps 766 mmHg 86%
    20:00 +8°C° 0 mm 4 mps 767 mmHg 86%
    21:00 +7°C° 0 mm 4 mps 767 mmHg 86%
    22:00 +6°C° 0 mm 4 mps 767 mmHg 84%
    23:00 +6°C° 0 mm 4 mps 767 mmHg 83%

    29 August, Thursday

    Time Temperature Precipitation Wind Pressure Humidity
    00:00 +5°C° 0 mm 4 mps 767 mmHg 82%
    01:00 +4°C° 0 mm 3 mps 767 mmHg 80%
    02:00 +4°C° 0 mm 3 mps 767 mmHg 78%
    03:00 +3°C° 0 mm 3 mps 767 mmHg 75%
    04:00 +3°C° 0 mm 3 mps 768 mmHg 76%
    05:00 +3°C° 0 mm 3 mps 768 mmHg 78%
    06:00 +2°C° 0 mm 3 mps 768 mmHg 79%
    07:00 +4°C° 0 mm 3 mps 768 mmHg 72%
    08:00 +5°C° 0 mm 3 mps 768 mmHg 65%
    09:00 +8°C° 0 mm 3 mps 769 mmHg 58%
    10:00 +9°C° 0 mm 3 mps 768 mmHg 54%
    11:00 +10°C° 0 mm 3 mps 768 mmHg 50%
    12:00 +12°C° 0 mm 2 mps 767 mmHg 46%
    13:00 +13°C° 0 mm 2 mps 767 mmHg 47%
    14:00 +13°C° 0 mm 2 mps 766 mmHg 47%
    15:00 +12°C° 0 mm 3 mps 766 mmHg 48%
    16:00 +11°C° 0 mm 3 mps 766 mmHg 56%
    17:00 +9°C° 0 mm 3 mps 766 mmHg 63%
    18:00 +8°C° 0 mm 3 mps 766 mmHg 71%
    19:00 +7°C° 0 mm 3 mps 766 mmHg 73%
    20:00 +7°C° 0 mm 3 mps 766 mmHg 76%
    21:00 +5°C° 0 mm 4 mps 767 mmHg 78%
    22:00 +5°C° 0 mm 3 mps 766 mmHg 79%
    23:00 +5°C° 0 mm 3 mps 766 mmHg 79%
    Show more